Погода в Колоне

Панама     9°21′27″N   79°54′05″W
темп.,
°C
ветер,
м/с
пор.,
м/с
влажн.,
%
обл.,
%
осадки,
мм/ч
давл.,
гПа
погр.,
м
13 июня, вс
вс1301:00+25з249193 1.9 1011214
04:00+25зсз1290100 1.4 1010168
07:00+26з1389100 1.6 1011218
10:00+28зсз2482100 2.6 1012730
13:00+28зсз347997 5.0 1010834
16:00+28зсз337596 1.3 1008812
19:00+25юз2390100 6.6 101081
22:00+24ююв2392100 2.2 1012112
14 июня, пн
пн1401:00+24ю129457 3.3 101181
04:00+23ююв229494 0.0 101089
07:00+24юв239446 0.0 1012129
10:00+27ююв478447 2.0 1013844
13:00+24ююв4109398 4.1 1012481
16:00+25юв4791100 0.0 1011372
19:00+24юв3791100 0.0 1011296
22:00+24юв3692100 0.0 1012242
15 июня, вт
вт1501:00+24юв3691100 0.0 1011217
04:00+23юв369299 0.0 1011235
07:00+24юв3889100 0.0 1012337
10:00+28ююв476975 0.0 10131061
13:00+31ююв246064 0.0 10111261
16:00+26вюв3783100 0.5 1010327
19:00+25вюв378935 0.6 1012303
22:00+25юв3791100 0.0 1013260
16 июня, ср
ср1601:00+24юв239585 0.0 1012105
04:00+23юв239599 0.0 101198
07:00+24юв249393 0.0 1012163
10:00+29юв236875 0.0 1012846
13:00+31юв125982 0.1 10111197
16:00+29с227472 0.2 1009278
19:00+26св228827 0.6 1010169
22:00+25вюв239296 0.4 1012102
17 июня, чт
чт1701:00+24юв129460 0.5 101162
04:00+24юв229512 0.3 101071
07:00+24юв12925 0.3 101198
10:00+30ююв016771 0.0 1012800
13:00+28с337737 0.9 1010489
16:00+28ссв237919 1.6 1008666
19:00+25ссв23905 6.7 1009103
22:00+25св12905 0.4 1011174